GFSWCAN_850_temp_243.txt.gz
Temp
-5 -4 -4 -4 -3 -3 -2 -3 -3 -3 -3 -3 -2 -3 -3 -3 -3 -3 -3 -3 -4 -3 -3 -3 -2 -2 -2 -1 -2 -1 -2 -2 -4 -3 -5 -4 -2 1 2 4 4 4 4 3 2 3 2 9 9 8 8 10 10 11
-5 -4 -4 -4 -4 -3 -3 -3 -4 -3 -3 -3 -3 -3 -3 -3 -3 -3 -4 -3 -3 -4 -3 -3 -2 -2 -2 -2 -2 -1 -1 -1 -0 -2 -1 -1 0 0 2 2 5 3 5 4 4 3 6 8 9 10 11 10 10 10
-5 -4 -4 -4 -4 -4 -4 -4 -3 -4 -4 -3 -3 -3 -3 -3 -3 -4 -4 -4 -4 -4 -3 -3 -3 -0 -1 -0 0 -2 -1 -1 -1 -1 -2 -1 -1 0 -0 2 3 5 6 3 3 4 6 6 8 9 9 10 10 10
-5 -5 -5 -4 -4 -4 -4 -4 -3 -4 -4 -4 -4 -3 -3 -3 -4 -4 -4 -4 -4 -4 -4 -2 -1 -1 -0 0 0 0 0 -2 -2 -1 -1 -1 0 1 -0 1 1 3 4 4 4 5 6 8 8 9 9 9 9 9
-5 -5 -5 -5 -4 -5 -4 -5 -5 -5 -4 -4 -4 -3 -3 -4 -4 -4 -4 -4 -4 -4 -4 -3 -2 1 2 1 0 0 -0 -1 -2 -1 -1 -1 -0 1 -1 0 0 3 3 2 3 5 6 7 8 8 8 8 9 9
-5 -5 -5 -5 -5 -5 -5 -5 -5 -5 -5 -4 -3 -3 -4 -4 -5 -5 -4 -3 -4 -4 -4 -4 -0 1 1 1 1 1 2 -0 -0 -1 -0 -0 2 1 -1 -0 4 6 6 6 5 6 6 7 8 7 6 7 7 7
-5 -4 -5 -5 -4 -5 -5 -5 -5 -5 -4 -4 -4 -4 -4 -4 -5 -5 -4 -3 -3 -3 -3 -3 -3 2 2 1 1 0 0 -0 -1 -1 -1 -0 0 1 -2 0 3 4 5 6 6 7 6 6 5 5 6 5 6 6
-5 -5 -5 -5 -4 -4 -4 -4 -5 -5 -4 -4 -4 -4 -4 -4 -4 -5 -3 -2 -4 -4 -4 -4 -3 -0 2 0 -0 -0 -1 -2 -2 -1 -1 -1 0 -0 1 2 4 5 3 4 5 5 4 4 4 4 4 4 4 3
-7 -7 -6 -5 -5 -5 -4 -4 -4 -5 -4 -4 -4 -4 -4 -4 -5 -2 -2 -2 -3 -3 -3 -3 -3 -4 1 1 0 -0 -0 -1 -1 -1 -1 0 -0 -0 2 3 3 3 3 4 4 3 3 2 2 2 1 1 1 1
-7 -7 -7 -7 -6 -6 -5 -4 -4 -4 -4 -4 -4 -4 -4 -3 -3 -3 -3 -3 -3 -3 -3 -3 -0 -2 1 -0 0 -0 -0 -1 -1 -0 2 -1 0 3 1 3 2 2 2 2 1 0 0 -0 -1 -1 -1 -1 -1 -1
-7 -7 -7 -7 -6 -6 -6 -5 -4 -4 -3 -4 -3 -3 -3 -2 -2 -2 -2 -2 -2 -3 -2 -2 -1 -2 0 -0 -1 3 -1 -1 -1 1 0 1 1 1 -1 -1 0 -0 -0 -1 -1 -2 -2 -2 -2 -2 -2 -3 -3 -3
-7 -7 -7 -7 -7 -7 -7 -6 -5 -5 -4 -3 -4 -3 -2 -2 -1 -2 -3 -1 -1 -0 -1 -2 0 0 1 1 0 -0 0 -0 1 1 0 1 -0 0 -0 -1 -1 -2 -2 -3 -3 -3 -3 -3 -3 -3 -4 -4 -4 -4
-7 -8 -7 -7 -7 -7 -7 -6 -5 -5 -4 -4 -4 -4 -3 -3 -5 -3 -4 -1 -2 1 3 2 1 2 1 1 -0 -0 -0 -2 0 -4 0 -0 -1 -1 -1 -2 -2 -3 -3 -3 -3 -4 -4 -4 -4 -4 -5 -5 -5 -5
-7 -8 -7 -7 -7 -6 -7 -6 -5 -5 -5 -4 -3 -6 -4 -4 -2 -1 -1 -2 3 2 1 -0 -0 -0 2 -1 -0 0 1 -0 -2 -2 1 -1 -2 -2 -2 -3 -3 -3 -4 -4 -4 -4 -4 -4 -4 -4 -4 -4 -5 -5
-7 -7 -7 -6 -7 -6 -6 -5 -5 -5 -5 -4 -2 -5 -2 -0 2 2 2 2 2 2 1 0 1 2 -1 -0 0 1 -0 -1 0 -2 -1 -1 -2 -2 -3 -3 -3 -4 -4 -4 -4 -4 -4 -5 -4 -4 -4 -4 -5 -5
-8 -7 -7 -7 -7 -7 -6 -5 -5 -5 -5 -4 -3 -3 -0 -2 -3 1 1 1 1 1 1 0 -1 -1 0 0 1 -1 1 -2 -2 -3 -1 -2 -2 -3 -3 -4 -4 -4 -4 -4 -4 -4 -4 -5 -4 -4 -4 -5 -5 -5
-8 -7 -7 -7 -7 -7 -7 -6 -5 -5 -4 -3 -4 -2 -1 -1 -1 -1 -0 0 1 0 -3 -1 -2 -0 -1 -1 1 -1 -3 -2 -2 -3 -3 -3 -3 -4 -4 -4 -5 -4 -5 -4 -4 -4 -4 -4 -4 -4 -4 -4 -5 -5
-8 -7 -7 -7 -7 -7 -6 -6 -5 -4 -3 -3 -4 -2 -1 -1 -1 -1 -0 0 0 -0 -1 -1 0 0 -0 0 -1 -4 -2 -2 -3 -4 -4 -4 -4 -5 -4 -4 -5 -5 -5 -4 -4 -4 -5 -5 -5 -5 -4 -4 -4 -5
-8 -8 -7 -8 -8 -8 -7 -5 -5 -4 -3 -2 -2 -1 -1 -1 -0 -0 0 -0 -0 -1 -1 -1 -1 -1 -2 -3 -3 -3 -4 -4 -5 -5 -4 -4 -5 -5 -5 -5 -4 -4 -4 -4 -4 -4 -4 -5 -5 -5 -6 -5 -5 -5
-8 -8 -7 -7 -8 -8 -7 -6 -4 -3 -3 -2 -1 -2 -1 -1 -1 -0 -0 -0 -1 -3 -3 -2 -3 -3 -4 -5 -5 -5 -5 -5 -6 -6 -5 -6 -6 -7 -6 -6 -5 -4 -4 -4 -4 -4 -5 -5 -6 -6 -6 -6 -5 -5
-8 -8 -8 -8 -8 -8 -7 -6 -4 -3 -2 -1 -1 -1 -1 -0 -0 -0 -1 -1 -3 -3 -4 -1 -4 -5 -4 -5 -6 -6 -7 -7 -7 -7 -7 -7 -8 -8 -6 -6 -5 -5 -5 -5 -5 -5 -5 -6 -6 -6 -6 -6 -6 -5
-8 -8 -8 -8 -8 -7 -7 -6 -5 -3 -2 -2 -1 -1 -2 -5 -2 -1 -2 -3 -3 -2 -2 -4 -5 -5 -6 -6 -7 -7 -7 -8 -8 -7 -8 -8 -9 -8 -7 -7 -7 -6 -6 -6 -6 -5 -5 -6 -6 -6 -6 -6 -6 -6
-8 -8 -9 -8 -8 -6 -5 -4 -4 -4 -5 -4 -1 -3 -4 -4 -1 -1 -3 -3 -4 -4 -4 -5 -5 -6 -6 -7 -8 -8 -9 -9 -8 -8 -9 -9 -9 -9 -8 -8 -8 -7 -7 -7 -7 -6 -6 -6 -6 -6 -6 -6 -6 -6
-8 -9 -8 -8 -7 -9 -4 -3 -3 -3 -2 -3 -3 -3 -3 -5 -3 -4 -4 -5 -6 -6 -6 -6 -7 -7 -8 -8 -9 -9 -8 -9 -9 -9 -9 -10 -11 -10 -10 -9 -10 -9 -9 -9 -8 -7 -6 -6 -6 -6 -6 -6 -6 -6
-9 -8 -8 -9 -6 -7 -8 -6 -5 -3 -7 -5 -4 -6 -6 -4 -4 -4 -5 -7 -7 -7 -7 -7 -7 -7 -7 -8 -9 -9 -9 -9 -10 -10 -10 -11 -12 -11 -11 -11 -11 -11 -10 -9 -8 -8 -7 -7 -6 -6 -6 -6 -6 -6
-8 -7 -8 -8 -8 -7 -6 -8 -7 -7 -6 -6 -4 -4 -4 -4 -4 -5 -7 -6 -7 -7 -7 -7 -7 -8 -8 -8 -9 -10 -10 -10 -10 -11 -11 -11 -11 -12 -13 -13 -12 -11 -11 -11 -11 -10 -9 -8 -7 -7 -6 -6 -6 -6
-8 -8 -6 -5 -4 -4 -5 -4 -2 -4 -6 -7 -7 -7 -4 -5 -6 -9 -8 -7 -8 -8 -8 -8 -8 -8 -9 -10 -10 -10 -11 -11 -11 -11 -12 -12 -12 -12 -12 -12 -12 -12 -12 -12 -12 -12 -11 -10 -8 -7 -7 -6 -6 -6
-7 -5 -8 -6 -5 -4 -5 -5 -5 -6 -6 -4 -4 -4 -5 -7 -8 -8 -8 -9 -8 -9 -9 -9 -10 -10 -10 -11 -11 -12 -12 -12 -12 -12 -12 -12 -12 -13 -13 -12 -12 -12 -12 -12 -12 -12 -11 -11 -10 -8 -7 -7 -6 -6
-6 -5 -5 -6 -6 -5 -5 -5 -6 -5 -5 -4 -8 -7 -9 -10 -9 -10 -10 -10 -10 -10 -10 -11 -11 -11 -11 -11 -12 -12 -11 -12 -11 -12 -12 -13 -13 -13 -13 -12 -12 -12 -12 -11 -12 -12 -12 -11 -10 -9 -8 -7 -7 -7
-7 -5 -7 -6 -6 -7 -7 -6 -7 -7 -7 -7 -8 -9 -10 -11 -10 -10 -10 -10 -11 -11 -11 -12 -12 -12 -12 -13 -12 -12 -12 -12 -12 -12 -13 -13 -14 -13 -13 -13 -12 -12 -13 -13 -12 -11 -11 -10 -9 -9 -8 -7 -7 -7
-5 -4 -6 -6 -7 -8 -9 -9 -9 -8 -8 -8 -8 -8 -11 -12 -11 -11 -11 -11 -11 -11 -11 -12 -12 -12 -12 -13 -13 -13 -13 -13 -13 -13 -14 -14 -13 -14 -14 -13 -13 -13 -13 -13 -14 -13 -12 -11 -10 -10 -9 -8 -7 -7
-5 -6 -8 -9 -10 -10 -9 -9 -9 -9 -9 -9 -10 -10 -11 -11 -11 -11 -11 -11 -11 -11 -12 -12 -13 -13 -13 -13 -13 -13 -13 -13 -14 -14 -14 -14 -14 -14 -14 -14 -14 -14 -14 -13 -14 -13 -13 -12 -11 -11 -10 -9 -8 -7
-6 -7 -8 -9 -11 -10 -9 -8 -8 -9 -8 -8 -9 -10 -10 -10 -11 -12 -12 -12 -12 -12 -12 -13 -13 -13 -13 -13 -14 -14 -14 -14 -14 -14 -14 -14 -14 -14 -14 -14 -14 -14 -14 -14 -14 -13 -13 -13 -12 -12 -11 -10 -9 -7

GFSWCAN_850_temp_246.txt.gz
Temp
-5 -5 -5 -4 -4 -4 -3 -3 -3 -3 -3 -3 -3 -3 -2 -3 -3 -3 -3 -3 -4 -4 -4 -3 -3 -3 -3 -3 -4 -2 -3 -4 -7 -3 -6 -5 -3 -0 -0 2 3 2 1 -2 -1 1 2 7 7 6 7 8 9 10
-5 -5 -5 -4 -4 -4 -4 -4 -3 -4 -3 -3 -3 -3 -3 -3 -3 -3 -4 -3 -4 -4 -4 -3 -3 -3 -3 -3 -3 -3 -2 -2 -2 -6 -5 -3 -2 -1 0 -0 4 2 1 1 2 1 4 4 5 5 6 7 9 9
-5 -5 -5 -5 -4 -4 -4 -4 -4 -4 -3 -4 -4 -4 -3 -3 -3 -3 -4 -4 -4 -5 -4 -3 -3 -0 -1 -2 -2 -4 -3 -2 -2 -1 -3 -3 -2 -3 -1 1 2 4 3 1 2 4 4 3 4 6 7 7 8 8
-5 -5 -5 -5 -4 -4 -4 -4 -4 -4 -4 -4 -4 -4 -4 -3 -3 -3 -4 -4 -5 -5 -4 -3 -2 -2 -1 -1 -1 -2 -2 -2 -1 -1 -2 -2 -1 -1 -1 1 1 2 3 3 2 4 5 6 6 7 7 8 8 8
-5 -5 -5 -5 -5 -5 -5 -5 -5 -5 -5 -5 -4 -4 -4 -3 -3 -4 -4 -4 -5 -5 -6 -4 -3 1 1 -0 -0 -1 -2 -2 -2 -2 -1 -1 -1 -1 -3 -1 0 2 2 1 1 4 4 5 5 6 6 6 6 6
-5 -5 -5 -5 -4 -5 -5 -5 -5 -5 -5 -5 -4 -4 -3 -4 -4 -5 -5 -4 -4 -5 -5 -6 -2 -0 1 1 -1 0 -0 -1 -2 -1 -1 -1 0 -0 -1 -1 2 4 4 4 2 4 5 5 5 4 4 4 5 5
-6 -5 -5 -5 -5 -4 -4 -4 -5 -5 -5 -5 -4 -4 -4 -4 -4 -5 -3 -4 -4 -4 -5 -4 -5 0 1 2 0 -1 -0 -1 -1 -1 -1 -2 -0 -0 -1 -0 3 3 3 3 3 4 4 4 3 4 4 4 4 3
-7 -7 -6 -5 -5 -5 -4 -4 -4 -5 -5 -5 -4 -4 -4 -4 -4 -5 -4 -4 -4 -5 -4 -4 -5 -3 1 0 -0 -0 -1 -1 -1 -1 -2 -2 -1 -1 -1 0 2 2 3 3 3 2 2 2 3 2 1 1 0 0
-7 -7 -7 -6 -6 -5 -5 -5 -4 -4 -4 -4 -4 -4 -4 -4 -5 -3 -3 -3 -4 -4 -4 -4 -5 -7 0 -0 0 -1 -1 -1 -1 -2 -2 -1 -2 -0 1 1 2 0 -0 -0 1 2 2 1 0 0 -1 -1 -2 -2
-6 -7 -7 -7 -7 -6 -6 -6 -5 -4 -4 -4 -4 -4 -4 -3 -3 -3 -3 -3 -4 -4 -4 -4 -2 -4 -1 -2 -4 -2 -1 -1 -1 -1 -1 -1 -0 1 -0 -1 -1 -1 -1 -1 -1 -2 -2 -2 -3 -3 -3 -3 -3 -3
-7 -7 -7 -7 -7 -7 -6 -6 -6 -5 -4 -4 -4 -4 -3 -3 -3 -3 -3 -3 -2 -3 -3 -3 -3 -3 -1 -3 -4 1 -4 -3 -1 -1 -1 -1 -0 -0 -2 -2 -2 -2 -3 -2 -3 -3 -3 -3 -3 -3 -3 -3 -3 -3
-7 -7 -7 -7 -7 -7 -7 -6 -6 -6 -4 -4 -4 -4 -3 -3 -3 -4 -6 -3 -3 -2 -2 -4 -2 -2 -1 -0 -2 -1 -1 -2 0 -2 -3 -2 -1 -1 -2 -2 -2 -3 -3 -3 -4 -3 -3 -3 -4 -4 -4 -4 -5 -5
-7 -7 -7 -7 -7 -7 -7 -7 -6 -6 -5 -4 -4 -4 -4 -3 -5 -4 -7 -3 -5 -2 0 0 -2 0 -1 -1 -1 -1 -0 -1 -1 -6 -2 -2 -2 -2 -2 -2 -3 -3 -3 -4 -4 -4 -4 -4 -4 -4 -3 -4 -5 -4
-7 -7 -7 -7 -7 -7 -5 -6 -6 -6 -5 -5 -4 -5 -4 -5 -4 -3 -3 -4 1 1 1 0 -1 -1 -1 -1 -1 -1 -0 -2 -3 -5 -1 -2 -2 -2 -2 -3 -3 -4 -4 -4 -4 -4 -4 -5 -5 -4 -5 -5 -5 -5
-7 -7 -7 -7 -7 -6 -6 -6 -5 -5 -5 -5 -4 -5 -4 -2 -1 -1 -0 0 1 1 1 0 -2 -0 -1 -1 -1 -0 -2 -2 -1 -4 -4 -2 -2 -2 -3 -3 -3 -4 -4 -4 -4 -5 -5 -4 -5 -4 -4 -4 -4 -5
-8 -7 -7 -7 -7 -7 -6 -5 -5 -5 -5 -5 -4 -4 -3 -4 -6 -1 -0 -1 -0 0 -0 -0 -2 -3 -1 -0 -0 -2 0 -3 -4 -3 -2 -2 -3 -3 -3 -3 -4 -4 -4 -4 -4 -5 -4 -5 -5 -5 -4 -4 -4 -5
-8 -7 -6 -7 -7 -7 -6 -6 -6 -5 -5 -4 -6 -3 -2 -3 -4 -2 -1 -1 -0 -1 -5 -2 -2 -2 -2 -2 -0 -2 -5 -6 -3 -3 -3 -3 -4 -4 -4 -4 -4 -5 -5 -5 -5 -5 -5 -5 -5 -5 -5 -4 -4 -4
-7 -7 -8 -7 -7 -7 -6 -6 -6 -5 -5 -4 -6 -3 -2 -2 -2 -2 -1 -1 -1 -1 -1 -2 -1 -1 -4 -0 -2 -3 -3 -4 -4 -4 -4 -4 -4 -4 -5 -5 -5 -4 -5 -5 -5 -5 -5 -5 -6 -6 -6 -6 -5 -5
-8 -7 -8 -7 -7 -7 -7 -7 -6 -6 -4 -3 -3 -2 -2 -2 -2 -1 -1 -1 -1 -1 -2 -2 -2 -3 -3 -4 -5 -4 -4 -3 -4 -4 -4 -5 -5 -6 -6 -6 -5 -4 -4 -5 -5 -5 -4 -5 -6 -6 -6 -6 -6 -5
-8 -7 -8 -8 -8 -8 -8 -7 -6 -5 -5 -3 -3 -3 -3 -2 -2 -2 -1 -1 -1 -1 -2 -2 -3 -3 -3 -2 -2 -2 -3 -4 -5 -5 -6 -6 -6 -6 -7 -7 -6 -5 -5 -5 -4 -4 -5 -5 -6 -6 -7 -7 -6 -6
-8 -8 -8 -8 -8 -8 -7 -7 -6 -4 -3 -3 -2 -2 -2 -2 -2 -2 -2 -1 -2 -2 -3 -2 -2 -1 -1 -2 -3 -3 -4 -5 -6 -6 -7 -7 -8 -8 -8 -7 -7 -6 -6 -6 -6 -5 -6 -6 -6 -6 -6 -7 -7 -6
-8 -8 -8 -8 -8 -8 -8 -7 -6 -5 -5 -4 -3 -3 -2 -9 -4 -1 -1 -2 -3 -2 -2 -1 -1 -2 -4 -4 -5 -5 -6 -6 -7 -7 -8 -8 -8 -8 -8 -8 -8 -7 -7 -7 -7 -7 -7 -6 -6 -6 -6 -6 -6 -7
-9 -8 -8 -8 -8 -8 -8 -6 -6 -6 -7 -6 -3 -4 -6 -7 -2 -1 -4 -3 -3 -3 -3 -2 -2 -3 -4 -6 -6 -7 -7 -8 -8 -8 -8 -8 -9 -10 -9 -9 -9 -8 -8 -8 -8 -8 -7 -7 -6 -6 -6 -6 -6 -6
-9 -9 -9 -8 -9 -14 -6 -6 -6 -5 -5 -5 -5 -6 -6 -7 -3 -7 -7 -7 -4 -5 -4 -4 -5 -6 -7 -7 -8 -8 -8 -9 -9 -9 -9 -9 -10 -10 -10 -11 -11 -10 -10 -10 -9 -9 -8 -7 -7 -6 -6 -6 -6 -6
-9 -9 -9 -13 -8 -11 -12 -11 -7 -6 -7 -8 -6 -5 -8 -5 -7 -7 -8 -9 -7 -7 -6 -6 -6 -7 -7 -8 -9 -9 -9 -9 -9 -10 -10 -10 -10 -11 -11 -11 -11 -12 -11 -10 -9 -9 -9 -8 -8 -7 -7 -7 -7 -6
-10 -8 -10 -13 -13 -11 -11 -11 -11 -11 -7 -10 -8 -6 -5 -9 -9 -9 -9 -7 -7 -7 -7 -7 -7 -8 -8 -8 -9 -9 -9 -9 -10 -10 -11 -11 -11 -11 -11 -11 -11 -11 -11 -11 -11 -11 -10 -10 -9 -8 -7 -7 -6 -7
-12 -14 -8 -7 -6 -6 -8 -8 -5 -7 -7 -10 -12 -9 -7 -6 -6 -9 -7 -7 -7 -7 -7 -8 -8 -8 -8 -8 -9 -10 -10 -11 -11 -11 -11 -12 -12 -12 -12 -12 -12 -11 -11 -11 -11 -11 -11 -10 -9 -9 -8 -7 -7 -7
-9 -8 -11 -8 -7 -6 -10 -8 -7 -7 -6 -5 -6 -6 -9 -10 -11 -8 -8 -8 -7 -8 -8 -8 -8 -8 -9 -9 -10 -10 -11 -11 -12 -12 -13 -13 -13 -13 -13 -13 -12 -12 -12 -12 -12 -11 -11 -11 -10 -9 -9 -8 -7 -7
-8 -7 -6 -15 -10 -7 -11 -10 -8 -5 -5 -6 -10 -11 -10 -9 -9 -9 -9 -9 -9 -9 -9 -10 -10 -10 -10 -10 -11 -11 -11 -11 -11 -12 -12 -13 -13 -13 -13 -12 -12 -12 -12 -12 -12 -12 -11 -10 -10 -9 -9 -9 -7 -7
-9 -7 -8 -13 -11 -10 -8 -5 -6 -7 -7 -7 -7 -10 -10 -11 -10 -10 -9 -10 -10 -10 -10 -11 -11 -11 -11 -11 -11 -11 -11 -12 -12 -12 -12 -12 -12 -13 -13 -13 -13 -12 -12 -12 -12 -11 -11 -10 -10 -9 -9 -9 -8 -7
-7 -7 -9 -8 -9 -8 -7 -8 -8 -8 -8 -8 -8 -9 -11 -11 -11 -11 -11 -11 -11 -11 -11 -12 -12 -12 -12 -12 -12 -12 -12 -12 -12 -12 -13 -13 -13 -13 -13 -13 -13 -13 -13 -13 -12 -12 -11 -11 -10 -10 -9 -9 -8 -7
-6 -7 -10 -12 -14 -10 -9 -9 -9 -9 -9 -9 -10 -11 -12 -12 -12 -11 -11 -11 -11 -11 -11 -11 -12 -12 -13 -13 -13 -13 -13 -13 -13 -13 -13 -13 -13 -13 -13 -14 -14 -13 -13 -13 -13 -13 -12 -12 -12 -11 -10 -10 -9 -8
-8 -9 -10 -11 -12 -13 -10 -9 -10 -11 -10 -10 -10 -10 -10 -10 -15 -12 -12 -11 -11 -11 -11 -12 -12 -13 -13 -13 -13 -13 -13 -13 -14 -14 -14 -14 -14 -14 -14 -14 -14 -14 -14 -14 -14 -14 -13 -13 -12 -12 -11 -10 -10 -9

GFSWCAN_850_temp_249.txt.gz
Temp
-5 -5 -5 -5 -5 -4 -4 -3 -3 -3 -3 -3 -3 -3 -3 -2 -3 -3 -3 -3 -4 -4 -4 -4 -3 -4 -4 -4 -4 -3 -4 -5 -6 -4 -6 -2 -2 -1 -1 1 1 1 -2 -1 -1 -2 -1 3 4 4 3 4 4 6
-5 -5 -5 -5 -4 -4 -4 -4 -4 -3 -3 -3 -3 -3 -3 -3 -3 -3 -4 -4 -4 -4 -4 -4 -3 -4 -3 -3 -4 -4 -2 -3 -2 -8 -9 -7 -6 -4 -1 -2 2 0 1 1 1 0 3 3 5 4 4 4 4 5
-5 -5 -5 -5 -4 -4 -4 -4 -4 -5 -4 -4 -3 -4 -3 -3 -3 -3 -3 -3 -4 -4 -4 -4 -2 -1 -3 -3 -3 -4 -4 -3 -3 -2 -3 -3 -3 -3 -3 -1 1 3 1 0 2 3 3 4 5 5 4 4 5 6
-5 -5 -5 -5 -5 -5 -4 -4 -4 -4 -4 -4 -4 -4 -4 -4 -4 -3 -3 -3 -4 -4 -5 -4 -3 -3 -2 -2 -3 -3 -3 -3 -3 -2 -3 -4 -4 -1 -1 -0 -1 1 2 2 2 3 3 4 5 5 5 5 5 6
-5 -5 -5 -5 -5 -5 -5 -5 -5 -5 -5 -5 -5 -4 -4 -4 -3 -4 -4 -4 -4 -4 -6 -5 -4 0 0 -1 -0 -2 -3 -4 -4 -3 -2 -2 -2 -1 -2 -2 -1 1 2 1 1 3 3 3 4 4 4 4 4 4
-5 -5 -5 -5 -5 -5 -5 -5 -5 -5 -5 -5 -5 -5 -4 -4 -4 -4 -4 -4 -4 -4 -5 -7 -3 -1 -0 0 -0 -1 -3 -4 -4 -3 -2 -1 0 -1 -1 -1 1 3 3 3 2 3 3 3 4 3 3 3 3 3
-6 -6 -6 -5 -5 -5 -5 -5 -4 -4 -5 -5 -5 -4 -4 -4 -4 -4 -3 -4 -4 -4 -5 -5 -6 -1 -0 -0 -1 -2 -2 -4 -3 -2 -2 -1 -1 -1 -1 -0 2 2 2 2 2 2 2 3 2 1 1 1 1 2
-6 -6 -7 -6 -6 -5 -5 -5 -5 -4 -4 -4 -5 -4 -4 -4 -4 -4 -4 -4 -5 -5 -5 -5 -5 -4 -0 -0 -0 -1 -1 -3 -2 -2 -2 -3 -1 -2 -1 -0 1 2 1 1 1 1 1 1 1 1 0 0 1 0
-6 -6 -6 -6 -7 -7 -6 -5 -5 -5 -4 -4 -4 -4 -4 -4 -4 -4 -4 -4 -5 -5 -5 -4 -5 -8 -1 -1 -2 -2 -2 -2 -2 -3 -3 -2 -3 -2 -0 0 0 -0 -1 -1 -1 -0 -0 -1 -2 -2 -2 -3 -3 -2
-6 -6 -6 -6 -7 -7 -7 -6 -6 -5 -4 -5 -5 -4 -5 -4 -3 -4 -4 -4 -5 -5 -5 -5 -4 -6 -1 -2 -4 -4 -3 -4 -3 -3 -2 -2 -1 1 0 -1 -2 -2 -2 -2 -2 -2 -3 -3 -3 -3 -3 -3 -4 -4
-6 -6 -6 -6 -7 -7 -7 -6 -6 -6 -5 -5 -5 -5 -4 -4 -3 -3 -3 -4 -4 -3 -4 -4 -4 -4 -2 -4 -4 -0 -5 -4 -3 -2 -2 -2 -1 0 -2 -1 -2 -2 -3 -3 -3 -3 -4 -4 -4 -4 -4 -4 -4 -4
-7 -6 -7 -7 -7 -7 -7 -7 -6 -6 -5 -5 -5 -4 -4 -4 -4 -4 -5 -3 -3 -2 -3 -5 -3 -3 -3 -3 -3 -3 -1 -2 -1 -3 -1 -1 -2 -1 -1 -2 -2 -3 -3 -4 -4 -4 -4 -4 -4 -4 -4 -4 -4 -4
-7 -7 -7 -7 -7 -7 -7 -6 -6 -6 -6 -5 -5 -5 -4 -4 -5 -4 -6 -3 -4 -3 -1 -1 -1 -2 -3 -3 -2 -1 -1 -1 -2 -4 -3 -2 -3 -2 -2 -2 -3 -3 -3 -4 -4 -4 -5 -5 -5 -5 -5 -5 -5 -5
-7 -7 -7 -7 -7 -7 -7 -6 -5 -6 -6 -5 -5 -6 -4 -5 -4 -3 -2 -4 -1 0 -0 -2 -3 -3 -1 -2 -1 -1 -1 -2 -4 -5 -1 -5 -2 -2 -2 -3 -3 -3 -4 -4 -4 -4 -5 -5 -5 -5 -4 -5 -6 -5
-8 -8 -7 -7 -7 -7 -7 -6 -6 -6 -5 -5 -5 -5 -5 -3 -2 -2 -2 -2 -0 -0 -0 -1 -3 -2 -3 -2 -1 -1 -2 -3 -2 -3 -5 -3 -2 -2 -3 -3 -3 -3 -4 -4 -5 -5 -5 -5 -5 -5 -5 -5 -5 -5
-8 -8 -7 -7 -7 -7 -7 -7 -6 -6 -5 -5 -5 -4 -4 -4 -5 -3 -2 -1 -0 -0 -1 -1 -3 -3 -2 -1 0 -2 -0 -3 -4 -4 -3 -2 -3 -3 -3 -3 -3 -4 -5 -5 -5 -5 -5 -5 -5 -6 -6 -6 -6 -5
-8 -8 -7 -7 -7 -7 -7 -7 -6 -5 -5 -5 -7 -4 -4 -4 -4 -2 -2 -2 -1 -1 -6 -5 -5 -2 -3 -2 -1 -3 -5 -5 -4 -3 -3 -3 -3 -3 -3 -3 -4 -4 -4 -4 -5 -5 -5 -5 -5 -6 -6 -6 -6 -5
-8 -8 -8 -7 -7 -7 -7 -7 -6 -6 -5 -5 -6 -4 -3 -3 -3 -2 -2 -2 -2 -2 -2 -3 -2 -2 -4 -1 -4 -6 -3 -3 -3 -2 -3 -4 -4 -4 -5 -5 -5 -5 -5 -4 -4 -5 -5 -4 -5 -5 -6 -6 -7 -7
-8 -8 -8 -7 -7 -8 -7 -7 -7 -7 -5 -4 -4 -3 -3 -3 -2 -2 -2 -2 -2 -2 -2 -3 -3 -3 -3 -5 -5 -3 -3 -3 -3 -3 -4 -4 -5 -5 -5 -6 -6 -6 -5 -5 -5 -5 -5 -5 -6 -6 -6 -6 -7 -7
-9 -8 -8 -7 -7 -8 -8 -7 -7 -6 -5 -4 -4 -4 -4 -3 -3 -3 -3 -2 -2 -3 -5 -4 -4 -2 -2 -0 0 -0 0 -1 -3 -4 -4 -5 -6 -6 -7 -7 -7 -6 -6 -6 -6 -6 -5 -5 -5 -6 -6 -6 -6 -6
-9 -9 -8 -8 -7 -9 -8 -7 -7 -6 -5 -4 -4 -4 -4 -3 -4 -4 -4 -3 -4 -4 -5 -2 -2 -1 -1 -1 -1 -1 -2 -3 -3 -4 -5 -6 -6 -7 -7 -8 -8 -7 -7 -7 -6 -6 -7 -8 -7 -6 -6 -6 -6 -6
-9 -9 -8 -8 -8 -8 -8 -8 -7 -6 -6 -5 -5 -4 -4 -6 -4 -3 -2 -3 -4 -2 -2 -2 -1 -1 -2 -2 -2 -2 -4 -4 -5 -5 -6 -7 -8 -8 -8 -8 -9 -8 -8 -8 -8 -8 -8 -8 -7 -7 -6 -6 -6 -6
-9 -9 -8 -9 -9 -9 -8 -7 -8 -7 -8 -8 -5 -6 -8 -8 -3 -2 -6 -3 -2 -2 -2 -2 -2 -3 -3 -4 -5 -5 -6 -6 -6 -7 -8 -8 -8 -9 -10 -10 -10 -9 -9 -9 -9 -9 -9 -8 -8 -7 -7 -6 -6 -6
-9 -8 -9 -9 -9 -14 -8 -8 -7 -7 -6 -6 -7 -7 -6 -9 -3 -9 -8 -5 -2 -2 -2 -2 -4 -4 -6 -6 -6 -6 -7 -7 -8 -8 -9 -9 -9 -10 -10 -10 -11 -11 -11 -11 -10 -10 -10 -9 -9 -8 -8 -7 -7 -7
-9 -9 -9 -10 -9 -12 -14 -13 -10 -7 -9 -8 -7 -7 -8 -5 -6 -7 -9 -8 -3 -2 -3 -5 -5 -5 -5 -6 -7 -8 -8 -8 -8 -9 -9 -10 -10 -10 -11 -11 -11 -11 -11 -11 -10 -10 -10 -10 -9 -9 -8 -8 -7 -7
-10 -10 -12 -13 -15 -13 -13 -15 -17 -13 -9 -9 -10 -7 -6 -8 -8 -8 -12 -7 -7 -7 -6 -6 -6 -6 -7 -7 -7 -8 -8 -9 -9 -10 -10 -10 -11 -11 -11 -11 -11 -11 -11 -11 -11 -10 -10 -10 -10 -9 -9 -8 -8 -7
-11 -12 -9 -9 -7 -7 -12 -8 -7 -11 -10 -11 -13 -13 -10 -11 -11 -10 -6 -7 -7 -7 -7 -7 -7 -7 -7 -7 -8 -9 -9 -10 -10 -10 -11 -11 -12 -12 -12 -12 -11 -11 -11 -11 -11 -11 -11 -10 -10 -10 -9 -8 -8 -8
-10 -9 -13 -9 -8 -7 -13 -13 -12 -10 -11 -6 -8 -9 -8 -9 -11 -7 -7 -7 -7 -7 -7 -7 -8 -8 -8 -8 -9 -10 -10 -10 -11 -12 -12 -12 -12 -12 -12 -12 -12 -12 -12 -12 -12 -12 -12 -11 -11 -10 -10 -9 -8 -8
-9 -8 -8 -16 -12 -9 -10 -9 -10 -6 -6 -5 -7 -7 -8 -8 -8 -8 -8 -8 -8 -8 -8 -8 -9 -9 -9 -10 -10 -11 -11 -11 -12 -12 -12 -12 -12 -12 -13 -13 -13 -12 -12 -12 -12 -12 -12 -11 -11 -11 -10 -9 -9 -8
-10 -8 -10 -16 -16 -15 -9 -7 -6 -5 -6 -7 -7 -9 -10 -10 -9 -9 -9 -9 -9 -9 -9 -10 -9 -10 -10 -11 -11 -11 -11 -11 -12 -12 -12 -12 -12 -13 -13 -12 -12 -12 -12 -12 -12 -12 -11 -11 -11 -11 -10 -9 -9 -8
-8 -8 -10 -10 -11 -8 -8 -7 -7 -7 -8 -9 -9 -10 -10 -10 -10 -10 -10 -10 -10 -11 -11 -11 -11 -12 -12 -12 -12 -12 -12 -12 -12 -12 -12 -12 -13 -13 -13 -13 -13 -13 -13 -13 -12 -12 -12 -11 -11 -11 -11 -10 -9 -9
-8 -9 -10 -11 -12 -8 -8 -9 -9 -9 -9 -10 -10 -10 -11 -11 -11 -11 -11 -11 -11 -11 -11 -11 -11 -11 -12 -13 -13 -13 -13 -13 -12 -13 -13 -13 -13 -13 -13 -13 -13 -13 -13 -13 -13 -13 -13 -13 -12 -12 -11 -11 -10 -9
-9 -10 -10 -11 -11 -11 -10 -10 -10 -11 -12 -11 -10 -11 -11 -10 -15 -11 -11 -12 -11 -11 -11 -11 -12 -12 -13 -13 -13 -13 -13 -13 -13 -13 -14 -14 -14 -14 -14 -14 -14 -14 -14 -14 -14 -14 -14 -14 -13 -13 -12 -12 -11 -10

GFSWCAN_850_temp_252.txt.gz
Temp
-5 -5 -5 -4 -5 -5 -4 -4 -4 -3 -3 -3 -2 -3 -3 -3 -3 -3 -3 -3 -3 -3 -3 -3 -3 -3 -4 -4 -5 -3 -5 -6 -8 -7 -6 -7 -3 -4 -2 1 0 0 -1 -2 -0 -2 -2 3 4 3 2 2 2 2
-5 -5 -5 -5 -4 -4 -4 -4 -4 -4 -3 -3 -3 -3 -3 -3 -3 -3 -3 -3 -4 -4 -4 -3 -3 -3 -4 -3 -4 -5 -3 -4 -3 -6 -8 -7 -7 -7 -3 -2 2 0 1 1 -0 0 2 4 3 4 3 3 2 2
-5 -5 -5 -5 -5 -4 -4 -4 -4 -4 -4 -4 -4 -3 -3 -4 -3 -3 -3 -3 -4 -4 -4 -4 -2 -2 -3 -3 -4 -4 -4 -4 -3 -3 -4 -6 -4 -4 -4 -2 -0 1 1 0 1 2 2 3 3 4 3 4 4 4
-5 -5 -5 -5 -5 -5 -5 -4 -4 -4 -4 -4 -4 -4 -4 -4 -4 -4 -4 -4 -4 -4 -5 -3 -2 -3 -2 -2 -3 -3 -4 -4 -4 -3 -3 -6 -4 -3 -3 -2 -2 0 0 0 1 2 2 3 3 3 4 3 4 3
-5 -5 -5 -5 -5 -5 -5 -5 -5 -5 -5 -4 -4 -4 -4 -4 -4 -4 -4 -4 -3 -4 -6 -4 -3 -1 -2 -3 -3 -3 -4 -5 -5 -4 -4 -5 -3 -2 -3 -2 -1 0 0 -1 1 2 1 2 3 2 3 2 2 2
-6 -5 -5 -5 -5 -5 -5 -5 -5 -5 -5 -5 -5 -5 -4 -4 -4 -5 -4 -3 -3 -4 -4 -8 -3 -2 -1 -2 -2 -2 -4 -5 -5 -4 -4 -2 -1 -1 -2 -2 1 2 2 2 1 2 2 2 2 2 2 1 1 1
-6 -6 -6 -6 -5 -5 -5 -5 -5 -5 -4 -4 -4 -5 -4 -4 -4 -4 -3 -3 -4 -4 -5 -6 -6 -2 -1 -2 -2 -4 -5 -5 -4 -4 -3 -2 -2 -2 -2 -1 2 2 2 2 1 1 0 0 -1 -1 0 0 0 0
-6 -6 -6 -6 -6 -6 -6 -5 -5 -5 -4 -4 -4 -5 -4 -4 -4 -4 -4 -4 -4 -5 -5 -5 -5 -4 -2 -1 -2 -3 -4 -5 -4 -3 -3 -2 -2 -2 -1 -0 1 1 1 1 1 -0 -1 -1 -1 -0 0 0 -0 -1
-6 -6 -6 -6 -6 -7 -7 -6 -6 -5 -5 -5 -4 -5 -5 -5 -5 -4 -4 -4 -5 -4 -5 -6 -6 -8 -2 -1 -2 -2 -3 -3 -2 -3 -3 -2 -2 -2 -0 -0 0 0 -0 -0 -1 -2 -1 -2 -2 -2 -3 -3 -3 -3
-7 -6 -6 -6 -6 -6 -7 -7 -6 -6 -5 -5 -5 -5 -5 -4 -4 -4 -4 -4 -4 -4 -5 -5 -4 -7 -2 -2 -4 -4 -3 -3 -3 -4 -2 -3 -2 0 1 1 0 -1 -2 -2 -3 -2 -3 -3 -4 -4 -4 -4 -4 -4
-7 -7 -6 -6 -6 -7 -7 -7 -7 -6 -6 -5 -5 -5 -4 -4 -4 -4 -3 -4 -5 -4 -5 -5 -5 -5 -3 -4 -3 -3 -6 -4 -3 -3 -3 -3 -2 -2 0 -0 -1 -2 -2 -3 -4 -4 -4 -4 -4 -4 -4 -5 -5 -5
-7 -7 -7 -6 -7 -7 -7 -7 -7 -7 -6 -5 -5 -5 -4 -4 -4 -4 -5 -3 -3 -2 -4 -4 -4 -4 -3 -3 -4 -4 -3 -3 -2 -3 -2 -3 -2 -1 -2 -2 -2 -3 -3 -4 -4 -4 -4 -5 -5 -5 -5 -5 -5 -5
-8 -7 -7 -7 -7 -7 -7 -7 -6 -6 -6 -6 -5 -5 -5 -5 -5 -4 -7 -3 -3 -3 -3 -3 -2 -3 -4 -4 -3 -3 -4 -4 -3 -4 -2 -2 -3 -2 -2 -2 -3 -3 -3 -4 -4 -4 -5 -5 -5 -5 -5 -6 -5 -5
-8 -7 -7 -7 -7 -7 -7 -7 -7 -6 -6 -6 -5 -5 -5 -6 -5 -3 -2 -3 -1 -2 -2 -2 -3 -3 -2 -2 -1 -1 -1 -2 -3 -5 -2 -4 -2 -2 -2 -2 -3 -3 -3 -4 -4 -5 -5 -5 -5 -5 -6 -6 -6 -6
-8 -8 -7 -8 -7 -7 -7 -7 -6 -6 -6 -6 -5 -6 -5 -4 -3 -3 -3 -3 -1 -1 -1 -3 -4 -3 -3 -3 -2 -2 -3 -2 -2 -4 -5 -3 -2 -2 -2 -3 -3 -3 -4 -4 -5 -5 -5 -5 -5 -5 -6 -6 -6 -6
-8 -8 -8 -7 -7 -7 -7 -7 -6 -6 -6 -5 -5 -5 -4 -5 -5 -3 -3 -2 -1 -1 -1 -1 -2 -3 -3 -2 -1 -2 -1 -4 -5 -6 -3 -3 -3 -2 -3 -3 -3 -4 -4 -4 -5 -5 -5 -5 -5 -5 -5 -5 -6 -7
-8 -8 -8 -8 -7 -7 -7 -7 -7 -6 -6 -5 -6 -5 -4 -5 -4 -2 -2 -2 -2 -2 -6 -4 -4 -2 -4 -4 -1 -2 -4 -6 -3 -2 -2 -2 -2 -2 -2 -3 -4 -4 -4 -4 -4 -4 -4 -5 -5 -5 -5 -6 -6 -7
-8 -8 -8 -8 -8 -7 -7 -7 -7 -7 -6 -5 -5 -4 -4 -3 -3 -3 -3 -2 -2 -2 -2 -4 -2 -3 -5 -2 -4 -6 -3 -2 -1 -1 -2 -2 -2 -2 -3 -4 -4 -5 -5 -5 -5 -5 -5 -5 -5 -6 -6 -6 -6 -6
-9 -8 -8 -8 -8 -8 -8 -8 -8 -7 -6 -5 -5 -4 -4 -4 -3 -3 -3 -3 -3 -2 -2 -2 -4 -5 -3 -4 -3 -1 -1 -1 -1 -2 -2 -3 -3 -4 -4 -5 -5 -6 -6 -6 -6 -7 -6 -6 -6 -6 -6 -6 -6 -6
-9 -8 -8 -8 -8 -8 -9 -8 -8 -7 -6 -5 -5 -5 -5 -4 -4 -4 -4 -3 -4 -4 -6 -6 -4 -3 -3 -1 -1 -1 -1 -0 -1 -2 -3 -3 -4 -5 -5 -6 -6 -6 -7 -8 -7 -7 -7 -6 -6 -6 -6 -6 -7 -7
-9 -9 -9 -9 -9 -8 -8 -8 -7 -7 -6 -5 -5 -5 -5 -5 -4 -4 -5 -4 -5 -5 -6 -3 -2 -2 -2 -2 -2 -1 -1 -1 -1 -1 -2 -4 -5 -6 -6 -7 -7 -8 -8 -8 -8 -7 -8 -8 -8 -7 -7 -7 -7 -6
-9 -9 -9 -9 -9 -8 -8 -9 -7 -7 -6 -6 -6 -6 -6 -6 -5 -5 -4 -4 -5 -4 -3 -3 -2 -2 -2 -2 -2 -2 -2 -2 -4 -4 -5 -5 -6 -7 -7 -8 -8 -9 -9 -9 -9 -8 -8 -8 -8 -8 -8 -8 -7 -7
-9 -9 -9 -8 -8 -9 -8 -8 -8 -7 -9 -8 -6 -6 -8 -8 -5 -4 -6 -4 -3 -3 -2 -2 -2 -2 -2 -2 -3 -3 -4 -4 -5 -5 -6 -7 -7 -8 -8 -9 -9 -10 -10 -10 -10 -9 -9 -10 -10 -9 -9 -8 -8 -7
-9 -9 -9 -9 -9 -12 -9 -9 -8 -7 -7 -8 -7 -8 -7 -8 -6 -8 -11 -6 -3 -3 -2 -2 -2 -3 -3 -4 -5 -5 -6 -6 -6 -7 -7 -8 -9 -9 -9 -10 -10 -11 -11 -10 -10 -10 -10 -10 -10 -10 -9 -9 -8 -8
-9 -9 -9 -10 -9 -13 -15 -15 -11 -8 -14 -13 -11 -14 -14 -6 -9 -8 -8 -6 -5 -4 -3 -2 -4 -5 -5 -5 -6 -6 -7 -7 -7 -8 -8 -9 -9 -10 -10 -11 -11 -11 -11 -11 -10 -10 -10 -10 -10 -10 -10 -9 -9 -8
-10 -9 -10 -12 -13 -12 -13 -15 -17 -14 -14 -14 -13 -8 -8 -11 -12 -12 -12 -3 -3 -4 -4 -5 -6 -6 -6 -6 -6 -7 -7 -8 -8 -9 -9 -10 -10 -10 -11 -11 -11 -11 -11 -11 -11 -10 -10 -11 -10 -10 -9 -9 -9 -9
-11 -11 -10 -9 -9 -9 -13 -10 -9 -14 -16 -15 -15 -14 -11 -9 -13 -12 -6 -6 -5 -5 -6 -7 -7 -7 -7 -7 -7 -8 -8 -9 -9 -10 -10 -10 -11 -11 -11 -12 -11 -11 -11 -11 -11 -12 -11 -11 -11 -11 -10 -9 -9 -10
-10 -10 -12 -10 -9 -8 -15 -14 -16 -13 -10 -7 -10 -10 -8 -9 -9 -8 -8 -8 -7 -7 -7 -7 -7 -7 -8 -8 -8 -9 -10 -10 -10 -10 -11 -11 -11 -12 -12 -12 -12 -12 -12 -12 -12 -12 -12 -12 -12 -11 -11 -10 -9 -9
-10 -9 -9 -12 -13 -10 -13 -14 -13 -8 -7 -7 -9 -9 -11 -6 -6 -7 -8 -8 -8 -8 -8 -8 -8 -8 -9 -9 -10 -10 -10 -10 -10 -11 -11 -11 -12 -12 -12 -12 -12 -12 -12 -12 -13 -13 -12 -12 -12 -12 -11 -11 -10 -10
-10 -9 -11 -17 -17 -16 -9 -7 -7 -7 -7 -7 -7 -7 -7 -7 -7 -7 -9 -9 -9 -9 -9 -9 -9 -9 -10 -10 -10 -11 -11 -11 -11 -12 -12 -12 -12 -12 -12 -12 -13 -13 -13 -13 -12 -12 -12 -12 -12 -11 -11 -11 -10 -9
-9 -9 -10 -11 -16 -8 -8 -8 -8 -7 -8 -8 -8 -9 -9 -9 -8 -8 -8 -9 -10 -10 -10 -10 -10 -11 -11 -11 -11 -12 -12 -12 -12 -12 -12 -12 -12 -12 -13 -13 -13 -13 -13 -13 -13 -13 -13 -12 -12 -11 -11 -11 -10 -10
-9 -10 -15 -17 -12 -9 -9 -8 -8 -9 -9 -10 -10 -10 -11 -11 -11 -9 -9 -9 -11 -11 -11 -11 -11 -11 -12 -12 -12 -12 -13 -13 -13 -13 -13 -13 -13 -13 -13 -13 -13 -13 -13 -14 -14 -14 -13 -13 -13 -13 -12 -12 -11 -10
-11 -10 -10 -10 -12 -13 -10 -10 -10 -11 -12 -12 -11 -11 -11 -10 -13 -10 -10 -10 -11 -11 -11 -11 -12 -12 -12 -13 -13 -13 -13 -13 -13 -13 -13 -13 -13 -13 -14 -14 -14 -14 -14 -14 -14 -14 -14 -14 -14 -13 -13 -13 -12 -11

GFSWCAN_850_temp_255.txt.gz
Temp
-4 -4 -4 -4 -4 -5 -5 -4 -4 -4 -3 -3 -3 -2 -2 -2 -3 -3 -3 -3 -3 -3 -3 -3 -3 -3 -3 -4 -4 -4 -3 -5 -6 -4 -4 -3 -2 -1 -1 1 1 1 0 -0 0 0 1 4 5 3 3 3 3 2
-4 -5 -5 -5 -4 -4 -4 -4 -4 -4 -4 -3 -3 -3 -3 -3 -3 -4 -3 -3 -3 -4 -3 -3 -3 -3 -3 -3 -4 -5 -3 -4 -4 -3 -4 -4 -2 -2 -1 -1 2 1 2 1 1 1 3 2 3 3 3 3 3 3
-5 -4 -4 -5 -5 -4 -4 -4 -4 -4 -4 -4 -4 -3 -3 -3 -3 -4 -4 -3 -4 -4 -4 -4 -3 -1 -2 -3 -3 -4 -5 -4 -3 -3 -4 -3 -4 -2 -2 -1 0 2 2 1 1 2 3 3 3 3 3 3 2 2
-5 -5 -5 -4 -4 -5 -5 -5 -4 -4 -4 -4 -4 -4 -4 -4 -4 -4 -4 -3 -4 -4 -5 -3 -2 -2 -1 -2 -2 -2 -3 -4 -4 -4 -4 -4 -3 -2 -1 -0 -0 1 1 1 1 2 2 3 3 3 2 2 2 2
-5 -5 -5 -5 -5 -5 -5 -5 -5 -5 -5 -5 -4 -4 -4 -4 -4 -4 -4 -4 -4 -4 -4 -4 -3 -1 -3 -3 -4 -4 -4 -5 -5 -4 -4 -4 -3 -2 -1 -1 -1 0 1 1 2 3 2 2 2 1 1 1 2 1
-5 -5 -5 -5 -5 -5 -5 -5 -5 -5 -5 -4 -4 -5 -4 -4 -4 -4 -5 -4 -4 -5 -4 -5 -3 -2 -2 -3 -3 -5 -4 -6 -5 -5 -4 -4 -3 -2 -2 -1 2 1 1 1 2 2 1 0 -0 -1 -0 -0 -0 -0
-6 -6 -6 -6 -6 -5 -5 -5 -5 -5 -5 -4 -4 -4 -4 -5 -4 -4 -4 -3 -3 -5 -4 -5 -5 -3 -2 -3 -4 -5 -6 -6 -5 -5 -4 -3 -2 -3 -1 -0 2 2 1 1 1 0 1 -1 -1 -1 -1 -2 -1 -1
-6 -6 -6 -6 -6 -6 -6 -6 -5 -5 -5 -4 -4 -4 -4 -5 -4 -4 -4 -4 -4 -4 -4 -5 -4 -4 -3 -3 -3 -4 -6 -5 -5 -4 -4 -3 -3 -3 -2 1 1 1 1 1 1 -1 -2 -2 -2 -2 -3 -3 -3 -3
-7 -6 -6 -6 -6 -6 -6 -7 -6 -6 -5 -5 -4 -4 -5 -5 -5 -4 -4 -4 -4 -4 -5 -6 -4 -4 -3 -2 -2 -3 -5 -4 -4 -3 -3 -2 -1 -1 1 1 1 1 0 0 -1 -1 -2 -3 -3 -4 -4 -4 -4 -4
-7 -7 -7 -6 -6 -6 -6 -6 -7 -6 -6 -5 -5 -5 -5 -5 -5 -4 -5 -4 -5 -5 -5 -5 -4 -4 -3 -3 -4 -4 -3 -2 -2 -1 -3 -2 0 1 1 2 1 1 -0 -1 -2 -2 -3 -3 -4 -4 -4 -4 -5 -5
-7 -7 -7 -6 -6 -6 -6 -6 -7 -6 -6 -6 -5 -5 -5 -5 -5 -4 -5 -4 -4 -4 -5 -5 -4 -3 -3 -3 -2 -3 -3 -3 -2 -1 -1 -2 -0 0 1 1 -1 -1 -1 -2 -3 -4 -4 -4 -4 -4 -5 -5 -5 -5
-8 -7 -7 -7 -6 -6 -7 -6 -7 -7 -6 -6 -6 -5 -5 -5 -4 -3 -3 -3 -4 -3 -4 -4 -4 -5 -4 -3 -3 -4 -2 -2 -1 -2 -2 -1 0 -1 -2 -2 -2 -2 -3 -3 -4 -4 -4 -4 -5 -5 -5 -5 -5 -6
-8 -8 -7 -7 -7 -7 -7 -6 -7 -6 -6 -6 -6 -5 -5 -5 -4 -4 -5 -3 -3 -2 -3 -4 -3 -4 -5 -4 -4 -3 -3 -2 -2 -1 -0 1 -2 -2 -3 -2 -2 -3 -3 -4 -4 -4 -4 -5 -5 -5 -5 -6 -6 -6
-8 -8 -7 -7 -7 -7 -7 -7 -7 -7 -6 -6 -6 -5 -5 -6 -4 -3 -2 -2 -2 -2 -3 -3 -2 -2 -3 -3 -2 -1 -1 -1 -1 -1 -0 -0 -2 -2 -2 -2 -3 -3 -3 -3 -4 -5 -5 -5 -5 -5 -5 -6 -6 -6
-8 -8 -7 -7 -7 -7 -7 -7 -7 -7 -6 -6 -5 -5 -5 -4 -4 -3 -3 -3 -2 -2 -2 -3 -3 -3 -2 -2 -2 -1 -2 -1 -1 -0 -1 -2 -2 -2 -2 -2 -2 -3 -3 -4 -4 -4 -5 -5 -5 -5 -5 -5 -5 -6
-8 -8 -7 -7 -7 -7 -7 -7 -7 -7 -6 -6 -6 -5 -5 -5 -5 -4 -3 -3 -3 -2 -3 -3 -2 -3 -2 -1 -1 -2 -1 -1 -1 -2 -1 -1 -2 -2 -2 -2 -2 -3 -3 -4 -5 -4 -4 -5 -5 -5 -5 -5 -5 -6
-8 -8 -8 -8 -8 -8 -7 -7 -7 -7 -6 -6 -6 -5 -4 -4 -4 -3 -3 -2 -3 -3 -3 -3 -3 -2 -2 -2 -1 0 -1 -1 -2 -1 -0 -0 -1 -2 -2 -3 -3 -4 -4 -4 -4 -4 -5 -5 -5 -5 -5 -5 -6 -6
-9 -8 -8 -8 -8 -8 -8 -7 -7 -7 -6 -6 -5 -6 -6 -5 -5 -4 -4 -3 -4 -4 -3 -3 -3 -3 -3 -2 -1 -2 -3 -1 -0 -1 -1 -1 -1 -2 -3 -3 -4 -4 -4 -5 -5 -5 -6 -7 -7 -6 -6 -6 -6 -6
-9 -9 -8 -8 -8 -8 -8 -8 -7 -7 -7 -6 -5 -5 -5 -5 -4 -4 -4 -3 -4 -4 -5 -4 -4 -4 -3 -2 -2 -1 -1 -1 -2 -2 -1 -1 -1 -2 -3 -4 -4 -5 -5 -5 -6 -7 -8 -8 -7 -7 -7 -7 -7 -7
-9 -9 -9 -8 -9 -8 -8 -8 -8 -8 -7 -6 -5 -5 -5 -5 -4 -5 -5 -5 -5 -5 -5 -5 -4 -3 -3 -1 -1 -2 -2 -2 -2 -1 -1 -1 -1 -3 -4 -5 -5 -6 -6 -6 -7 -8 -8 -7 -7 -7 -8 -8 -8 -7
-9 -9 -9 -9 -9 -9 -8 -8 -8 -8 -7 -6 -5 -5 -5 -5 -5 -5 -5 -5 -6 -5 -5 -4 -4 -3 -3 -3 -2 -2 -2 -2 -2 -3 -3 -2 -2 -3 -5 -5 -6 -6 -7 -7 -8 -8 -8 -8 -8 -8 -8 -8 -8 -8
-10 -9 -9 -9 -9 -9 -9 -8 -8 -7 -7 -7 -6 -6 -6 -7 -6 -6 -5 -5 -6 -5 -5 -4 -4 -3 -3 -3 -3 -2 -2 -2 -3 -3 -3 -3 -4 -5 -6 -6 -7 -7 -8 -9 -9 -9 -9 -9 -9 -9 -9 -9 -8 -8
-10 -9 -9 -9 -9 -8 -8 -9 -9 -8 -8 -8 -7 -6 -7 -8 -5 -5 -6 -5 -5 -4 -4 -4 -4 -3 -3 -3 -3 -3 -3 -3 -3 -4 -5 -5 -6 -7 -7 -7 -8 -9 -9 -10 -10 -10 -10 -10 -10 -10 -10 -9 -9 -8
-10 -10 -9 -9 -9 -10 -9 -9 -9 -7 -7 -7 -7 -8 -7 -7 -6 -7 -7 -6 -5 -5 -4 -3 -3 -5 -5 -5 -4 -3 -3 -5 -6 -6 -7 -7 -7 -8 -8 -9 -9 -10 -10 -10 -10 -10 -10 -11 -10 -10 -10 -10 -9 -9
-10 -9 -9 -9 -9 -11 -12 -12 -10 -9 -12 -12 -11 -12 -11 -7 -12 -11 -8 -7 -6 -6 -4 -3 -4 -4 -5 -5 -5 -5 -6 -6 -6 -7 -8 -8 -8 -9 -9 -10 -10 -10 -11 -11 -11 -11 -11 -11 -11 -10 -10 -10 -10 -9
-10 -9 -10 -10 -12 -12 -13 -13 -16 -14 -12 -13 -12 -9 -9 -11 -12 -10 -11 -9 -8 -8 -8 -7 -6 -6 -7 -7 -7 -6 -7 -7 -8 -8 -8 -9 -9 -10 -10 -10 -11 -11 -11 -11 -11 -11 -11 -11 -11 -10 -10 -10 -10 -10
-11 -14 -10 -10 -10 -10 -12 -11 -10 -13 -15 -14 -12 -14 -12 -13 -12 -11 -7 -6 -7 -8 -8 -8 -7 -8 -7 -7 -7 -7 -8 -8 -9 -9 -9 -9 -10 -10 -11 -11 -12 -12 -12 -12 -12 -11 -11 -11 -10 -11 -10 -10 -11 -11
-10 -10 -12 -10 -10 -10 -15 -14 -13 -13 -12 -10 -11 -14 -11 -12 -10 -7 -7 -7 -7 -7 -8 -8 -8 -8 -8 -8 -8 -8 -9 -9 -10 -10 -10 -10 -11 -11 -11 -12 -12 -12 -12 -12 -12 -12 -12 -11 -11 -11 -11 -11 -10 -11
-10 -9 -9 -15 -11 -11 -13 -13 -12 -9 -7 -8 -12 -12 -10 -7 -7 -7 -7 -7 -7 -8 -9 -9 -8 -8 -8 -8 -9 -9 -10 -10 -10 -10 -10 -11 -11 -11 -12 -12 -12 -12 -12 -12 -12 -12 -12 -12 -12 -12 -12 -11 -11 -11
-10 -9 -11 -16 -15 -13 -9 -8 -8 -7 -7 -7 -7 -8 -8 -7 -7 -7 -7 -7 -8 -8 -9 -9 -9 -9 -9 -9 -10 -10 -11 -11 -11 -11 -11 -12 -12 -12 -12 -12 -12 -12 -12 -12 -12 -12 -12 -12 -13 -12 -12 -12 -11 -10
-9 -10 -11 -12 -14 -9 -8 -8 -8 -8 -8 -8 -8 -9 -9 -8 -8 -7 -7 -7 -8 -9 -10 -10 -10 -10 -10 -11 -11 -11 -11 -11 -12 -12 -12 -12 -12 -13 -13 -13 -13 -13 -13 -13 -13 -13 -13 -13 -12 -12 -12 -12 -11 -11
-10 -11 -10 -15 -15 -9 -9 -9 -9 -9 -8 -9 -9 -9 -10 -10 -9 -8 -8 -8 -8 -9 -10 -10 -10 -11 -11 -12 -12 -12 -12 -12 -12 -13 -13 -13 -13 -13 -13 -13 -13 -13 -13 -13 -13 -13 -13 -13 -13 -13 -13 -13 -12 -11
-14 -13 -11 -12 -13 -13 -11 -10 -10 -12 -13 -12 -11 -10 -10 -10 -11 -9 -9 -9 -9 -10 -11 -11 -11 -12 -12 -12 -13 -13 -13 -13 -13 -13 -13 -14 -14 -14 -14 -14 -14 -14 -14 -14 -14 -14 -14 -14 -14 -14 -14 -13 -13 -12